Flag for Germany Weather past 2 weeks in Ingolstadt, Bavaria, Germany

Now
28 °F

Chilly.


Feels Like: 28 °F
Forecast: 37 / 45 °F
Wind: 2 mph from West

Location: Ingolstadt Airport

Current Time: Mar 1, 2015 at 1:12:35 AM

Latest Report: Mar 1, 2015 at 12:20 AM


Visibility: 3 mi

Pressure: 30.01 "Hg

Humidity: 93%

Dew point: 27 °F

Location of IngolstadtLocation

Historic Weather in Ingolstadt — Graph

°F

Ingolstadt temperature yesterday

Maximum temperature yesterday: 39 °F (at 2:20 PM)
Minimum temperature yesterday: 28 °F (at 11:20 PM)
Average temperature yesterday: 35 °F

Past Weeks' High & Low Weather Summary

 TemperatureHumidityPressure
High52 °F (Feb 20, 4:20 PM)100% (Feb 13, 11:20 PM)30.72 "Hg (Feb 13, 11:20 PM)
Low21 °F (Feb 20, 7:20 AM)41% (Feb 20, 4:20 PM)29.50 "Hg (Feb 21, 1:20 PM)
Average32 °F90%30.03 "Hg
* Reported Feb 13 11:20 PM — Feb 28 11:20 PM, Ingolstadt, Weather by CustomWeather, © 2015

Note: Actual official high and low records may vary slightly from our data, if they occured in-between our weather recording intervals... More about our weather records

Advertising

Ingolstadt weather history for previous 24 hours

 ConditionsComfort  
Time TempWeatherWind HumidityBarometerVisibility
11:20 PM
Sat, Feb 28
28 °FChilly.2 mph100%30.01 "Hg2 mi
10:20 PM30 °FChilly.1 mph93%30.04 "Hg3 mi
9:20 PM32 °FChilly.3 mph93%30.07 "Hg4 mi
8:20 PM34 °FChilly.3 mph87%30.07 "Hg5 mi
7:20 PM37 °FChilly.2 mph81%30.09 "Hg4 mi
6:20 PM37 °FChilly.1 mph75%30.09 "Hg4 mi
5:20 PM39 °FChilly.2 mph75%30.09 "Hg4 mi
4:20 PM39 °FChilly.5 mph75%30.09 "Hg4 mi
3:20 PM39 °FChilly.5 mph81%30.09 "Hg4 mi
2:20 PM39 °FChilly.2 mph81%30.09 "Hg4 mi
1:20 PM37 °FChilly.2 mph87%30.12 "Hg4 mi
12:20 PM37 °FChilly.2 mph87%30.15 "Hg4 mi
11:20 AM37 °FChilly.3 mph87%30.15 "Hg3 mi
10:20 AM36 °FChilly.5 mph93%30.15 "Hg3 mi
9:20 AM36 °FChilly.5 mph93%30.15 "Hg3 mi
8:20 AM36 °FChilly.6 mph93%30.15 "Hg3 mi
7:20 AM34 °FChilly.6 mph100%30.12 "Hg2 mi
6:20 AM34 °FChilly.6 mph100%30.12 "Hg3 mi
5:20 AM34 °FChilly.7 mph100%30.09 "Hg2 mi
4:20 AM34 °FChilly.5 mph100%30.09 "Hg2 mi
3:20 AM34 °FChilly.8 mph93%30.09 "Hg2 mi
2:20 AM34 °FChilly.8 mph100%30.09 "Hg3 mi
1:20 AM34 °FChilly.8 mph100%30.07 "Hg2 mi
Weather by CustomWeather, © 2015

See weather overviewHow to use our weather pages